Change the Weather History Date:

Monday, June 17, 2013

  Actual Average Record
Temperature  
Mean Temperature 76 °F -  
Max Temperature 85 °F - - ()
Min Temperature 67 °F - - ()
Cooling Degree Days 11    
Growing Degree Days 26 (Base 50)    
Moisture  
Dew Point 55 °F    
Average Humidity 49    
Maximum Humidity 73    
Minimum Humidity 23    
Precipitation  
Precipitation 0.00 in 0.11 in - ()
Sea Level Pressure  
Sea Level Pressure 29.97 in    
Wind  
Wind Speed 8 mph ()    
Max Wind Speed 18 mph    
Max Gust Speed 22 mph    
Visibility 8.9 miles    
Events      
T = Trace of Precipitation, MM = Missing Value Source: Averaged Metar Reports

Daily Weather History Graph

Daily Weather History Graph

Search for Another Location

Airport or City:

Trip Planner

Search our weather history database for the weather conditions in past years. The results will help you decide how hot, cold, wet, or windy it might be!

Date:

Astronomy

Jun. 17, 2013 Rise Set
Actual Time 4:46 AM EEST 9:12 PM EEST
Civil Twilight 4:00 AM EEST 9:57 PM EEST
Nautical Twilight 2:53 AM EEST 11:05 PM EEST
Astronomical Twilight 1:31 AM EEST 12:26 AM EEST
Moon 1:55 PM EEST (6/17) 12:49 AM EEST (6/17)
Length of Visible Light 17h 56m
Length of Day
16h 25m
First Quarter, 57% of the Moon is Illuminated
Jun 17
First Quarter
Jun 23
Full
Jun 30
Last Quarter
Jul 8
New
Jul 16
First Quarter

Hourly Weather History & Observations

Time (EEST) Temp. Heat Index Dew Point Humidity Pressure Visibility Wind Dir Wind Speed Gust Speed Precip Events Conditions
12:00 AM 75 °F - 55 °F 40% 29.94 in 12 mi North 8.9 mph - -   Partly Cloudy
12:00 AM 73.4 °F - 57.2 °F 57% 29.95 in - North 11.2 mph - N/A   Clear
12:30 AM 71.6 °F - 55.4 °F 57% 29.95 in - North 6.7 mph - N/A   Clear
1:00 AM 71.6 °F - 55.4 °F 57% 29.95 in - North 8.9 mph - N/A   Clear
1:30 AM 71.6 °F - 55.4 °F 57% 29.98 in - North 8.9 mph - N/A   Clear
2:00 AM 69.8 °F - 55.4 °F 60% 29.95 in - NNW 6.7 mph - N/A   Clear
2:30 AM 69.8 °F - 55.4 °F 60% 29.98 in - NNW 11.2 mph - N/A   Clear
3:00 AM 71 °F - 57 °F 51% 29.95 in 12 mi North 6.7 mph - -  
3:00 AM 68.0 °F - 55.4 °F 64% 29.98 in - North 6.7 mph - N/A   Clear
3:30 AM 68.0 °F - 55.4 °F 64% 29.98 in - North 8.9 mph - N/A   Clear
4:00 AM 66.2 °F - 57.2 °F 73% 29.98 in - North 6.7 mph - N/A   Clear
4:30 AM 68.0 °F - 57.2 °F 68% 29.98 in - North 4.5 mph - N/A   Clear
5:00 AM 66.2 °F - 57.2 °F 73% 29.98 in - NNW 4.5 mph - N/A   Clear
5:30 AM 66.2 °F - 57.2 °F 73% 29.98 in - NW 6.7 mph - N/A   Clear
6:00 AM 68 °F - 58 °F 61% 29.97 in 12 mi NW 4.5 mph - -  
6:00 AM 66.2 °F - 57.2 °F 73% 29.98 in - NNW 4.5 mph - N/A   Clear
6:30 AM 68.0 °F - 59.0 °F 73% 29.98 in - North 4.5 mph - N/A   Clear
7:00 AM 69.8 °F - 59.0 °F 68% 29.98 in - North 4.5 mph - N/A   Clear
7:30 AM 69.8 °F - 59.0 °F 68% 29.98 in - NW 8.9 mph - N/A   Clear
8:00 AM 71.6 °F - 59.0 °F 64% 29.98 in - NNW 6.7 mph - N/A   Clear
8:30 AM 75.2 °F - 59.0 °F 57% 29.98 in - North 8.9 mph - N/A   Clear
9:00 AM 76 °F - 57 °F 41% 29.97 in 12 mi North 8.9 mph - -   Clear
9:00 AM 77.0 °F - 57.2 °F 50% 29.98 in - North 11.2 mph - N/A   Clear
9:30 AM 77.0 °F - 55.4 °F 47% 29.98 in - North 11.2 mph - N/A   Clear
10:00 AM 78.8 °F - 55.4 °F 44% 29.98 in - North 11.2 mph - N/A   Clear
10:30 AM 78.8 °F - 51.8 °F 39% 29.98 in - North 11.2 mph - N/A   Clear
11:00 AM 78.8 °F - 53.6 °F 42% 29.98 in - North 11.2 mph - N/A   Clear
11:30 AM 80.6 °F 80.3 °F 53.6 °F 39% 29.98 in - North 8.9 mph - N/A   Clear
12:00 PM 81 °F - 53 °F 27% 29.95 in 12 mi NE 6.7 mph - -   Clear
12:00 PM 82.4 °F 81.4 °F 53.6 °F 37% 29.98 in - NNW 8.9 mph - N/A   Clear
12:30 PM 82.4 °F 81.7 °F 55.4 °F 39% 29.98 in - NW 8.9 mph - N/A   Clear
1:00 PM 82.4 °F 81.4 °F 53.6 °F 37% 29.95 in - NW 8.9 mph - N/A   Clear
1:30 PM 82.4 °F 81.7 °F 55.4 °F 39% 29.95 in - NW 8.9 mph - N/A   Clear
2:00 PM 84.2 °F 83.0 °F 55.4 °F 37% 29.95 in 6.2 mi WNW 11.2 mph - N/A   Partly Cloudy
2:30 PM 84.2 °F 83.0 °F 55.4 °F 37% 29.95 in 6.2 mi WNW 11.2 mph 22.4 mph N/A   Partly Cloudy
3:00 PM 84 °F - 52 °F 23% 29.92 in 12 mi WNW 8.9 mph - -   Partly Cloudy
3:00 PM 82.4 °F 82.0 °F 57.2 °F 42% 29.95 in 6.2 mi WNW 13.4 mph - N/A   Scattered Clouds
3:30 PM 77.0 °F - 59.0 °F 54% 29.95 in 6.2 mi WNW 17.9 mph - N/A   Mostly Cloudy
4:00 PM 80.6 °F 81.5 °F 60.8 °F 51% 29.95 in 6.2 mi WNW 11.2 mph - N/A   Mostly Cloudy
4:30 PM 82.4 °F 82.0 °F 57.2 °F 42% 29.95 in 6.2 mi NNW 11.2 mph - N/A   Mostly Cloudy
5:00 PM 78.8 °F - 60.8 °F 54% 29.95 in 6.2 mi NW 6.7 mph - N/A   Mostly Cloudy
5:30 PM 78.8 °F - 60.8 °F 54% 29.95 in 6.2 mi NNW 6.7 mph - N/A   Mostly Cloudy
6:00 PM 80 °F - 60 °F 40% 29.92 in 12 mi NW 6.7 mph - -   Partly Cloudy
6:00 PM 80.6 °F 81.1 °F 59.0 °F 48% 29.95 in 6.2 mi NW 13.4 mph - N/A   Mostly Cloudy
6:30 PM 80.6 °F 80.8 °F 57.2 °F 45% 29.95 in - NNW 13.4 mph - N/A   Clear
7:00 PM 80.6 °F - 50.0 °F 34% 29.95 in - NW 17.9 mph - N/A   Clear
7:30 PM 78.8 °F - 50.0 °F 36% 29.95 in - NW 15.7 mph - N/A   Clear
8:00 PM 77.0 °F - 46.4 °F 34% 29.95 in - NNW 15.7 mph - N/A   Clear
8:30 PM 77.0 °F - 46.4 °F 34% 29.98 in - NW 13.4 mph - N/A   Clear
9:00 PM 76 °F - 46 °F 24% 29.96 in 12 mi NNW 8.9 mph - -   Partly Cloudy
9:00 PM 75.2 °F - 48.2 °F 38% 29.98 in - NW 13.4 mph - N/A   Clear
9:30 PM 75.2 °F - 48.2 °F 38% 29.98 in - NNW 11.2 mph - N/A   Clear
10:00 PM 73.4 °F - 48.2 °F 41% 30.01 in - NNW 8.9 mph - N/A   Clear
10:30 PM 71.6 °F - 50.0 °F 46% 30.01 in - North 11.2 mph - N/A   Clear
11:00 PM 69.8 °F - 50.0 °F 49% 30.01 in - North 8.9 mph - N/A   Clear
11:30 PM 69.8 °F - 50.0 °F 49% 30.04 in - North 8.9 mph - N/A   Clear